[[{"header":{"parameterUnit":"m.s-1","parameterCategory":1,"la1":30.2991,"la2":30.254,"lo1":-89.0895,"lo2":-89.0444,"dy":0.0017,"dx":0.0017,"nx":28,"ny":28,"refTime":"2025-05-21T03:00:00:Z","depth":0,"parameterNumber":2,"parameterNumberName":"U-component_of_WINDS"},"data":[0,0,0,0,0,0,0,0,0,0,0,0,0,0,0,0,0,0,0,0,0,0,0,0,0,0,0,0,0,0,0,0,0,0,0,0,0,0,0,0,0,0,0,0,0,0,0,0,0,0,0,0,0,0,0,0,0,0,1.6372,1.6371,0,1.6337,1.6337,1.6337,1.6255,1.6253,1.6252,1.625,1.6218,1.6219,1.622,0,0,0,0,0,0,0,0,0,0,0,0,0,1.637,1.637,1.6372,1.6371,1.6371,1.6338,1.6337,1.6337,1.6255,1.6253,1.6251,1.6249,1.6218,1.6219,1.622,0,0,0,0,0,0,0,0,0,0,0,0,0,1.6357,1.6371,1.6372,1.6326,1.6322,1.6338,1.6337,1.6336,1.6256,1.6253,1.6251,1.6248,1.6218,1.6219,1.622,1.6279,0,0,1.6224,1.6224,0,0,0,0,0,0,0,0,1.6358,1.6357,1.6333,1.6329,1.6324,1.6298,1.6325,1.6317,1.6256,1.6281,1.625,1.6247,1.6247,1.6246,1.6245,1.6277,1.6276,1.6224,1.6224,1.6225,1.6225,0,0,0,0,0,0,0,1.6359,1.6358,1.6358,1.6333,1.6328,1.6309,1.6304,1.6323,1.6279,1.6279,1.6273,1.6269,1.6244,1.6244,1.6244,1.6275,1.6224,1.6225,1.6225,1.6226,1.6354,1.6357,0,0,0,0,0,0,1.6366,1.6359,1.6359,1.6357,1.6335,1.6311,1.6305,1.6309,1.6279,1.6271,1.6272,1.6266,1.6244,1.6243,1.6242,1.6309,1.6225,1.6226,1.6227,1.6352,1.6355,1.6358,0,0,0,0,0,0,1.6366,1.6367,1.6361,1.6357,1.6354,1.6313,1.6318,1.631,1.6309,1.6273,1.6265,1.6279,1.6241,1.6241,1.627,1.6307,1.6226,1.6228,1.6348,1.6353,1.6356,1.6443,0,0,0,0,0,0,1.6366,1.6367,1.6388,1.6358,1.6355,1.6388,1.632,1.6311,1.6311,1.6303,1.6278,1.6272,1.6239,1.6269,1.6271,1.6307,1.6228,1.6345,1.635,1.6355,1.6436,1.6449,1.646,0,0,0,0,0,1.6367,1.6414,1.639,1.639,1.638,1.639,1.6389,1.6349,1.6314,1.6336,1.6313,1.6273,1.6302,1.6273,1.6275,1.6311,1.6342,1.6349,1.6355,1.6431,1.6447,1.646,0,0,0,0,0,0,1.6451,1.6409,1.6382,1.6421,1.641,1.6377,1.6402,1.6367,1.6367,1.6359,1.6312,1.6307,1.6343,1.633,1.6297,1.6366,1.6316,1.6323,1.6373,1.6388,1.64,1.6402,1.6229,0,0,0,0,0,1.6474,1.6485,1.6448,1.6487,1.6482,1.6444,1.6446,1.6417,1.6404,1.6399,1.6378,1.6368,1.6375,1.6381,1.6385,1.6434,1.6428,1.646,1.6472,1.6482,1.6489,1.6514,1.6528,1.6378,1.6378,1.6378,0,0,1.6522,1.6501,1.6511,1.6503,1.6491,1.6504,1.644,1.6457,1.6466,1.6402,1.6428,1.6413,1.6398,1.6438,1.6454,1.6428,1.6529,1.649,1.6498,1.6499,1.6522,1.6536,1.6549,1.6382,1.6381,1.6381,0,0,1.6616,1.6601,1.6631,1.662,1.6602,1.6576,1.6584,1.6556,1.6543,1.6568,1.652,1.6532,1.6545,1.6537,1.6534,1.6626,1.659,1.6629,1.6691,1.6717,1.6729,1.6739,1.6772,1.6785,1.6636,1.6636,1.6636,0,1.6678,1.6695,1.6651,1.6671,1.6669,1.6611,1.6642,1.6634,1.6619,1.662,1.6591,1.6606,1.6592,1.6629,1.6652,1.6651,1.6659,1.6632,1.673,1.674,1.6749,1.678,1.6793,1.6641,1.664,1.664,1.6639,0,1.6773,1.6785,1.6812,1.6798,1.68,1.6825,1.6786,1.6793,1.6764,1.6742,1.6769,1.675,1.675,1.6757,1.6729,1.679,1.6774,1.6739,1.6687,1.6769,1.6798,1.6809,1.6648,1.6646,1.6645,1.6644,0,0,1.6918,1.688,1.6891,1.6884,1.686,1.687,1.6893,1.6892,1.6899,1.6892,1.691,1.6923,1.689,1.6887,1.6858,1.688,1.6955,1.6841,1.684,1.6863,1.7022,1.7049,1.7064,1.693,1.6933,1.6934,1.7023,0,1.7007,1.7043,1.7004,1.7049,1.7061,1.7006,1.7026,1.7015,1.6995,1.7003,1.6981,1.699,1.6946,1.6944,1.6963,1.6942,1.6986,1.6935,1.6949,1.695,1.6954,1.7078,1.7107,1.7192,1.7034,1.7036,1.7037,0,1.7114,1.7111,1.7156,1.713,1.7134,1.7153,1.7149,1.7157,1.7143,1.7127,1.7125,1.7089,1.7111,1.7061,1.7092,1.7058,1.7061,1.7052,1.7054,1.7054,1.6998,1.7082,1.7218,1.7231,1.7054,1.7053,1.7052,0,1.7216,1.7223,1.7251,1.7247,1.7217,1.7232,1.7221,1.7204,1.7206,1.7204,1.7204,1.7205,1.7205,1.7207,1.7173,1.714,1.7208,1.7155,1.7196,1.7197,1.7213,1.7212,1.7352,1.7216,1.7215,1.7215,1.7215,0,1.7319,1.7349,1.7296,1.7314,1.7346,1.7303,1.7337,1.732,1.7306,1.732,1.7273,1.7287,1.7241,1.7252,1.7225,1.7255,1.7255,1.7244,1.7236,1.7248,1.725,1.725,1.7243,1.7218,1.7218,1.7217,1.7217,0,1.7438,1.7404,1.7431,1.7401,1.7394,1.7419,1.7394,1.741,1.7386,1.7405,1.7407,1.7371,1.7381,1.7347,1.7351,1.7333,1.7377,1.736,1.7381,1.7376,1.7419,1.7416,1.7563,1.7581,1.7434,1.7435,1.7436,0,1.7506,1.7528,1.75,1.7505,1.7496,1.7506,1.7507,1.7465,1.7469,1.7456,1.7473,1.7479,1.7481,1.7499,1.7474,1.7477,1.746,1.7511,1.746,1.7471,1.7461,1.746,1.7462,1.7522,1.7524,1.7525,1.7526,0,1.763,1.7612,1.7615,1.7613,1.7616,1.7613,1.7607,1.7614,1.7569,1.7577,1.7585,1.7587,1.759,1.7597,1.7595,1.7584,1.7549,1.7543,1.7552,1.7564,1.7576,1.7571,1.7411,1.754,1.7538,1.7537,1.7537,1.7536,1.7725,1.7742,1.7725,1.7731,1.7721,1.7717,1.773,1.7708,1.7714,1.7713,1.7689,1.7703,1.769,1.7683,1.7676,1.7687,1.7663,1.7677,1.7681,1.7685,1.7692,1.7574,1.7686,1.7686,1.7686,1.7685,1.7685,0,1.7846,1.7833,1.7838,1.7831,1.7836,1.7801,1.7792,1.7799,1.7811,1.7801,1.7804,1.7815,1.7821,1.7797,1.78,1.7813,1.7797,1.7815,1.7814,1.7812,1.7713,1.7705,1.7828,1.7828,1.7828,1.7828,1.7828,1.7828,1.791,1.7937,1.7917,1.794,1.7926,1.7938,1.7937,1.7933,1.7924,1.7938,1.7942,1.7926,1.7911,1.7913,1.7917,1.791,1.7913,1.7938,1.7925,1.7833,1.7819,1.7806,1.7797,1.7939,1.7939,1.8023,1.8024,1.8024]},{"header":{"parameterUnit":"m.s-1","parameterCategory":1,"la1":30.2991,"la2":30.254,"lo1":-89.0895,"lo2":-89.0444,"dy":0.0017,"dx":0.0017,"nx":28,"ny":28,"refTime":"2025-05-21T03:00:00:Z","depth":0,"parameterNumber":3,"parameterNumberName":"V-component_of_WINDS"},"data":[0,0,0,0,0,0,0,0,0,0,0,0,0,0,0,0,0,0,0,0,0,0,0,0,0,0,0,0,0,0,0,0,0,0,0,0,0,0,0,0,0,0,0,0,0,0,0,0,0,0,0,0,0,0,0,0,0,0,6.2769,6.2769,0,6.2824,6.2824,6.2825,6.2774,6.2772,6.277,6.2768,6.2816,6.2819,6.2823,0,0,0,0,0,0,0,0,0,0,0,0,0,6.2611,6.2614,6.2769,6.2769,6.277,6.2824,6.2824,6.2825,6.2774,6.2772,6.2769,6.2767,6.2815,6.2819,6.2823,0,0,0,0,0,0,0,0,0,0,0,0,0,6.2674,6.2615,6.2768,6.2751,6.275,6.2824,6.2824,6.2825,6.2775,6.2772,6.2769,6.2766,6.2814,6.2819,6.2823,6.2914,0,0,6.2838,6.284,0,0,0,0,0,0,0,0,6.2671,6.268,6.2753,6.2753,6.2752,6.2789,6.2787,6.2855,6.2776,6.2765,6.2768,6.2764,6.2809,6.2814,6.2831,6.2916,6.2918,6.2839,6.2841,6.2843,6.2845,0,0,0,0,0,0,0,6.2666,6.2677,6.279,6.2754,6.2753,6.2738,6.2744,6.2799,6.2803,6.2766,6.2762,6.277,6.2808,6.2827,6.2832,6.2919,6.2838,6.2843,6.2846,6.2847,6.3082,6.3085,0,0,0,0,0,0,6.2665,6.2674,6.2788,6.2792,6.2703,6.2744,6.275,6.278,6.2803,6.2803,6.2773,6.2767,6.282,6.2826,6.2833,6.2942,6.2843,6.2848,6.2851,6.3079,6.3083,6.3087,0,0,0,0,0,0,6.2662,6.2676,6.2786,6.2732,6.2745,6.275,6.2784,6.2783,6.2801,6.2808,6.2807,6.2791,6.2818,6.2827,6.2895,6.2943,6.285,6.2854,6.3075,6.308,6.3085,6.3159,0,0,0,0,0,0,6.2657,6.2675,6.2711,6.2733,6.2748,6.285,6.2787,6.2786,6.281,6.2804,6.2825,6.2826,6.2816,6.2888,6.29,6.2948,6.2858,6.3071,6.3077,6.3083,6.3153,6.3166,6.3178,0,0,0,0,0,6.2652,6.2728,6.2713,6.2727,6.2794,6.2852,6.2861,6.285,6.2815,6.285,6.2854,6.2825,6.2936,6.2896,6.2908,6.2958,6.3068,6.3075,6.3083,6.3147,6.3164,6.3178,0,0,0,0,0,0,6.2707,6.273,6.2714,6.28,6.2825,6.2844,6.2888,6.2868,6.2901,6.2894,6.2877,6.2882,6.2955,6.2963,6.2918,6.3048,6.2995,6.3006,6.304,6.3056,6.3068,6.3065,6.2862,0,0,0,0,0,6.273,6.2779,6.2795,6.2869,6.2883,6.2884,6.2908,6.2899,6.2923,6.2932,6.2941,6.2964,6.3003,6.303,6.3067,6.3153,6.3157,6.3194,6.3206,6.3217,6.3226,6.3273,6.329,6.3112,6.3111,6.3111,0,0,6.2777,6.2795,6.2826,6.2881,6.2899,6.2947,6.2893,6.2945,6.2981,6.2939,6.3006,6.3013,6.3037,6.3116,6.315,6.3124,6.3276,6.3227,6.3235,6.3238,6.3283,6.33,6.3315,6.3117,6.3116,6.3115,0,0,6.2887,6.2906,6.2971,6.2991,6.302,6.3021,6.3036,6.3058,6.3063,6.313,6.31,6.314,6.3209,6.3228,6.3246,6.3364,6.3339,6.3376,6.3443,6.3489,6.3503,6.3515,6.3558,6.3574,6.3385,6.3386,6.3386,0,6.294,6.3015,6.3005,6.3062,6.3086,6.3054,6.3118,6.3137,6.3176,6.3192,6.3163,6.325,6.3264,6.3347,6.3376,6.3391,6.3408,6.3374,6.3502,6.3514,6.3526,6.3566,6.3583,6.339,6.339,6.3389,6.3389,0,6.3079,6.3131,6.3179,6.3222,6.3251,6.3311,6.3309,6.3339,6.3327,6.333,6.3398,6.3413,6.3453,6.3472,6.3459,6.3553,6.3536,6.3505,6.3452,6.3548,6.3586,6.3601,6.3397,6.3395,6.3394,6.3393,0,0,6.3225,6.3264,6.3281,6.3301,6.3332,6.337,6.3428,6.347,6.3497,6.3524,6.3572,6.3632,6.3603,6.3624,6.3613,6.3653,6.3747,6.3617,6.3617,6.3641,6.3852,6.3877,6.3895,6.373,6.3733,6.3735,6.3851,0,6.3337,6.3442,6.3435,6.3532,6.358,6.355,6.3601,6.3624,6.3628,6.3667,6.367,6.3713,6.3672,6.3685,6.3724,6.3728,6.3789,6.3719,6.3773,6.3775,6.3769,6.3915,6.394,6.4049,6.3865,6.3868,6.387,0,6.3482,6.3519,6.3622,6.3647,6.3667,6.3713,6.3751,6.379,6.3814,6.3814,6.3839,6.3821,6.3877,6.3824,6.3901,6.3853,6.3874,6.388,6.3883,6.3889,6.3829,6.3924,6.4083,6.4099,6.3893,6.3891,6.3889,0,6.358,6.3654,6.3726,6.3743,6.3774,6.3807,6.3821,6.3843,6.3869,6.3902,6.3919,6.3956,6.3977,6.4005,6.3997,6.3959,6.4076,6.4021,6.4077,6.4077,6.4103,6.4102,6.4268,6.4116,6.4116,6.4115,6.4115,0,6.3706,6.377,6.3771,6.3815,6.3886,6.3877,6.3946,6.3955,6.3976,6.402,6.3994,6.4036,6.4023,6.4062,6.4056,6.4121,6.413,6.4131,6.4128,6.4134,6.4134,6.4148,6.414,6.412,6.4119,6.4118,6.4117,0,6.3827,6.383,6.3907,6.3931,6.3938,6.399,6.4009,6.4049,6.4052,6.4108,6.412,6.4123,6.4169,6.4164,6.4214,6.421,6.4291,6.4279,6.4284,6.4282,6.4338,6.4333,6.452,6.4544,6.4375,6.4377,6.4378,0,6.3908,6.3958,6.3988,6.4018,6.4035,6.4082,6.4109,6.4101,6.4131,6.4164,6.42,6.4244,6.4279,6.4353,6.4359,6.4397,6.4386,6.4449,6.4391,6.4396,6.4388,6.4386,6.4391,6.446,6.4462,6.4464,6.4465,0,6.4052,6.4052,6.4094,6.4138,6.4173,6.4206,6.4235,6.426,6.4255,6.4289,6.4337,6.4365,6.4418,6.4461,6.4498,6.4509,6.4486,6.4483,6.4498,6.4505,6.4506,6.4507,6.4316,6.4479,6.4478,6.4477,6.4476,6.4475,6.4156,6.4199,6.4228,6.4277,6.4299,6.4328,6.4369,6.4378,6.4419,6.4464,6.4455,6.451,6.4533,6.458,6.4595,6.4636,6.4613,6.4635,6.464,6.4646,6.4653,6.4499,6.4642,6.4642,6.4642,6.4641,6.4641,0,6.4299,6.4317,6.4362,6.4407,6.4445,6.4423,6.4455,6.4487,6.4537,6.4562,6.4598,6.4654,6.4696,6.4706,6.4746,6.4777,6.4768,6.4788,6.4786,6.4789,6.4671,6.4655,6.4795,6.4795,6.4795,6.4795,6.4795,6.4795,6.4378,6.4451,6.4455,6.4537,6.4553,6.461,6.463,6.4656,6.4677,6.4741,6.4778,6.4785,6.4803,6.4845,6.4883,6.4884,6.49,6.4925,6.4922,6.4812,6.4797,6.4782,6.4767,6.4929,6.4929,6.5037,6.5038,6.5039]}]]